Location: Gerlach
(40.6516°N, 119.3568°W)
Time: 11:03:35
(UTC-08:00)

Explorer 11/Cluster Stage 4 - All Passes

Search period start: 07 February 2023 00:00
Search period end: 17 February 2023 00:00
Orbit: 466 x 1243 km, 28.8° (Epoch: 07 February)

Date Brightness Start Highest point End Pass type
(mag) Time Alt. Az. Time Alt. Az. Time Alt. Az.
07 Feb - 02:36:59 10° SSW 02:41:44 20° SSE 02:47:02 10° ESE visible
07 Feb - 04:23:22 10° SW 04:29:43 33° S 04:36:41 10° ESE visible
07 Feb - 06:11:21 10° WSW 06:18:04 32° S 06:25:03 10° SE visible
07 Feb - 08:00:46 10° WSW 08:06:16 20° SSW 08:11:42 10° SSE daylight
08 Feb - 02:23:30 10° SSW 02:28:11 21° SSE 02:33:28 10° ESE visible
08 Feb - 04:10:00 10° SW 04:16:09 32° S 04:23:02 10° ESE visible
08 Feb - 05:57:57 10° WSW 06:04:28 31° S 06:11:21 10° SE visible
08 Feb - 07:47:30 10° WSW 07:52:39 18° SSW 07:57:46 10° SSE daylight
09 Feb - 02:10:03 10° SSW 02:14:39 22° SSE 02:19:53 10° ESE visible
09 Feb - 03:56:38 10° SW 04:02:35 32° S 04:09:20 10° ESE visible
09 Feb - 05:44:36 10° WSW 05:50:52 29° S 05:57:35 10° SE visible
09 Feb - 07:34:19 10° WSW 07:39:01 17° SSW 07:43:45 10° SSE daylight
10 Feb - 01:56:40 10° SSW 02:01:08 22° SSE 02:06:16 10° ESE visible
10 Feb - 03:43:19 10° WSW 03:49:02 31° S 03:55:37 10° ESE visible
10 Feb - 05:31:18 10° WSW 05:37:16 27° SSW 05:43:46 10° SE visible
10 Feb - 07:21:15 10° WSW 07:25:22 15° SSW 07:29:34 10° S daylight
11 Feb - 01:43:19 10° SSW 01:47:38 22° SSE 01:52:37 10° ESE night (unlit)
11 Feb - 03:30:01 10° WSW 03:35:30 30° S 03:41:51 10° ESE visible
11 Feb - 05:18:02 10° WSW 05:23:41 25° SSW 05:29:53 10° SE visible
11 Feb - 07:08:23 10° SW 07:11:44 13° SSW 07:15:10 10° S daylight
12 Feb - 01:30:01 10° SSW 01:34:09 22° SSE 01:38:57 10° ESE night (unlit)
12 Feb - 03:16:45 10° WSW 03:21:58 29° S 03:28:04 10° ESE visible
12 Feb - 05:04:50 10° WSW 05:10:06 23° SSW 05:15:56 10° SE visible
12 Feb - 06:55:56 10° SW 06:58:07 11° SSW 07:00:20 10° S daylight
13 Feb - 01:16:43 10° SW 01:20:40 22° SSE 01:25:17 10° ESE night (unlit)
13 Feb - 03:03:31 10° WSW 03:08:27 27° S 03:14:15 10° SE visible
13 Feb - 04:51:40 10° WSW 04:56:30 21° SSW 05:01:54 10° SSE visible
14 Feb - 01:03:27 10° SW 01:07:12 21° SSE 01:11:35 10° ESE night (unlit)
14 Feb - 02:50:19 10° WSW 02:54:57 26° S 03:00:24 10° SE visible
14 Feb - 04:38:36 10° WSW 04:42:58 19° SSW 04:47:47 10° SSE visible
15 Feb - 00:50:12 10° SW 00:53:46 21° S 00:57:54 10° ESE night (unlit)
15 Feb - 02:37:10 10° SW 02:41:29 24° S 02:46:32 10° SE visible
15 Feb - 04:25:38 10° SW 04:29:24 16° SSW 04:33:34 10° SSE visible
16 Feb - 00:36:59 10° SW 00:40:19 20° S 00:44:12 10° SE night (unlit)
16 Feb - 02:24:02 10° SW 02:28:00 22° S 02:32:37 10° SE visible
16 Feb - 04:12:50 10° SW 04:15:52 14° SSW 04:19:10 10° SSE visible
